SCP
0 0 0 0 1 1 1 1 1 1 1 2 3 4 4 4 5 6 6 6 6 6 5 5 6 7 7 6 5 5 6 6 5 4 4 4 3 3 3 3 3 2 2 2
0 0 1 1 1 2 2 2 1 2 2 3 4 5 6 7 9 10 11 10 9 9 7 6 6 7 7 6 5 5 5 5 5 5 5 4 3 3 3 3 3 3 3 3
0 1 1 1 1 2 2 2 3 3 3 4 5 6 8 10 11 11 12 12 12 11 10 8 6 6 7 6 6 7 6 6 6 6 6 6 4 4 3 4 4 3 3 2
0 1 1 1 1 2 2 3 4 5 6 6 6 6 8 9 10 10 9 9 10 10 9 8 6 6 6 7 8 8 8 7 7 8 8 8 7 5 4 4 5 4 3 2
0 0 1 1 2 2 2 3 5 6 6 7 7 7 8 8 9 10 10 10 9 9 8 7 6 6 7 7 8 8 8 8 8 8 8 11 12 9 6 6 5 4 3 3
0 0 1 1 2 2 2 3 5 6 6 6 7 8 9 10 10 11 12 12 12 11 10 9 8 8 8 8 8 8 9 8 8 8 7 11 16 12 8 7 6 4 4 3
0 0 1 1 2 2 2 3 5 5 5 6 7 9 11 13 13 12 12 12 12 12 12 11 10 10 9 9 9 10 10 10 9 8 6 8 11 10 8 7 6 4 4 3
0 0 1 1 2 2 3 4 6 6 6 7 9 11 12 14 15 15 14 13 12 12 12 12 12 11 11 12 11 12 13 13 10 8 6 5 6 7 7 6 5 4 4 3
1 1 1 1 3 4 4 6 7 7 8 8 9 11 13 13 14 15 15 15 14 13 13 13 13 13 13 13 13 13 14 14 11 8 6 5 6 6 6 5 4 4 4 4
1 1 2 2 3 4 4 5 7 7 7 7 8 10 12 13 14 15 15 14 13 13 13 13 13 13 13 12 11 11 13 14 11 8 6 5 5 6 6 6 5 5 4 4
3 3 3 3 3 3 3 3 5 6 5 6 8 11 12 13 14 15 13 10 9 10 11 12 12 12 11 9 8 8 11 13 12 8 7 6 5 5 5 5 5 4 4 4
4 4 4 3 3 3 4 4 5 5 5 7 11 14 15 15 15 14 11 8 7 7 9 10 11 10 9 7 7 7 9 12 12 9 7 6 5 5 4 3 3 3 3 2
3 3 3 4 5 7 8 8 7 7 7 10 15 19 20 20 18 15 11 8 7 8 9 9 9 8 7 6 6 6 8 10 12 11 8 6 5 5 4 3 2 1 1 1
2 2 2 5 8 10 10 9 9 9 11 17 22 24 25 25 23 20 16 13 12 12 13 12 10 8 7 7 6 7 7 9 11 11 9 6 6 5 5 3 2 1 1 1
2 2 2 4 8 9 8 8 19 28 25 20 24 27 28 27 25 24 21 19 18 18 17 15 13 11 10 8 7 8 8 8 10 11 10 8 7 6 6 5 4 2 1 1
3 2 2 3 5 6 6 6 26 48 32 16 19 23 24 23 21 21 20 19 18 17 15 14 13 11 10 8 7 8 8 8 8 11 12 10 8 7 7 6 5 3 2 1
3 3 3 3 4 4 5 7 20 30 24 13 15 17 18 17 15 13 13 14 14 13 11 10 9 8 7 6 6 7 9 9 9 11 14 13 10 9 9 8 6 4 3 2
2 2 2 3 3 4 6 10 13 15 15 15 15 14 13 11 9 8 7 8 9 9 8 7 6 6 6 5 5 6 9 10 10 11 14 14 12 10 9 8 6 4 3 2
1 1 3 5 7 9 12 17 20 20 18 15 13 11 9 7 6 4 3 3 3 4 4 3 3 4 4 4 4 5 7 9 8 9 12 13 11 9 8 7 5 4 3 2
1 1 3 9 14 16 19 22 22 20 16 13 10 8 6 4 3 2 1 1 1 1 1 1 1 2 2 2 2 4 5 6 6 6 9 10 9 8 7 6 5 3 3 2
1 1 3 7 12 15 16 17 16 14 11 8 6 4 3 2 1 1 0 0 1 1 1 1 2 2 2 2 2 3 5 5 5 5 6 7 8 9 9 8 6 4 3 2
1 1 2 3 5 6 7 7 6 6 5 4 3 2 1 1 1 0 0 0 0 1 1 2 3 4 4 3 2 3 4 5 5 5 5 6 9 11 11 10 7 5 3 2
1 1 1 2 2 2 2 2 2 2 2 2 1 1 1 1 0 0 0 0 0 0 1 1 2 3 4 4 4 4 4 5 5 5 5 7 9 10 10 9 7 5 3 2
3 2 2 2 2 2 3 3 2 2 2 1 1 1 0 0 0 0 0 0 0 0 0 0 0 1 2 4 4 4 4 4 5 5 5 6 7 7 7 6 5 4 3 2
4 4 3 3 3 3 3 2 2 1 1 1 1 0 0 0 0 0 0 0 0 0 0 0 0 0 1 2 4 3 3 3 4 5 5 5 5 5 5 4 4 3 3 2
6 5 4 4 3 3 2 1 1 0 0 0 0 0 0 0 0 0 0 0 0 0 0 0 0 0 1 2 2 2 2 2 3 4 5 5 5 4 4 4 4 3 3 2
6 5 4 4 3 2 1 1 0 0 0 0 0 0 0 0 0 0 0 0 0 0 0 0 0 1 1 2 2 1 1 2 3 4 5 5 5 5 5 4 4 3 2 2
Wind_Speed
4 4 1 2 3 1 2 6 8 7 7 9 9 8 7 6 6 6 6 7 8 8 6 6 7 7 7 7 8 8 8 8 8 7 7 6 6 6 5 5 5 4 4 3
2 2 2 3 4 1 1 2 4 5 5 6 5 5 6 6 8 8 6 7 7 8 8 8 8 8 8 8 7 7 9 8 7 7 7 7 7 6 6 5 4 4 4 4
2 3 4 4 4 2 2 2 5 5 6 5 7 8 8 8 8 8 6 5 6 7 8 7 7 7 8 8 7 8 8 7 7 8 7 7 7 7 6 6 5 5 4 4
2 2 3 8 4 3 4 1 2 4 5 7 9 7 6 7 9 8 6 5 5 5 6 6 5 5 6 6 7 8 8 7 7 7 7 7 7 7 6 5 6 5 5 5
4 2 4 5 3 1 4 2 2 6 7 6 7 7 4 1 5 7 6 5 4 4 5 5 5 6 6 7 7 7 7 8 8 8 8 7 7 7 6 5 5 5 5 5
4 3 5 6 6 1 7 1 3 3 6 5 6 5 3 2 3 3 3 3 3 3 3 4 4 6 7 7 7 7 8 8 8 8 8 8 8 7 5 5 5 5 5 5
4 3 5 7 7 2 4 5 3 2 4 4 4 6 5 4 4 3 4 3 4 3 3 3 4 5 5 6 7 8 7 6 7 8 8 8 6 5 5 5 5 5 5 4
4 3 7 6 3 3 4 2 1 3 3 5 5 4 5 5 5 4 3 3 4 3 2 1 3 5 4 5 6 5 6 7 7 7 6 6 6 5 5 6 6 5 4 3
6 7 5 1 3 3 4 4 2 2 2 5 6 5 5 4 4 3 3 2 3 3 2 2 2 3 4 3 3 5 6 6 6 6 5 5 6 6 5 5 5 4 4 4
2 2 1 1 2 3 3 4 2 3 3 4 5 5 5 4 3 2 2 2 2 4 3 2 1 1 2 2 3 5 6 6 5 6 5 4 4 5 5 5 5 5 5 5
1 1 2 3 1 1 3 4 4 3 3 4 5 4 4 4 3 2 2 2 3 3 2 0 1 1 1 1 2 4 5 4 4 5 5 4 4 4 6 6 7 7 6 5
4 4 3 2 1 3 4 3 3 4 3 3 4 3 3 3 2 2 2 2 3 2 1 0 0 0 1 0 2 3 4 4 4 4 4 4 4 2 2 3 5 7 7 6
5 3 3 2 1 2 3 3 2 2 2 2 2 3 4 3 2 2 1 2 2 2 1 0 0 1 1 1 2 3 4 4 4 4 4 4 4 4 3 2 1 4 6 7
2 3 2 1 1 1 2 3 3 2 2 3 3 3 4 3 3 2 1 2 2 1 1 0 0 1 2 0 1 2 3 4 4 4 4 4 4 5 5 5 3 2 3 5
1 3 3 2 1 1 2 3 4 3 2 2 2 3 3 3 2 1 1 1 1 2 1 0 0 2 1 0 1 2 2 3 3 4 4 4 4 4 4 5 4 3 2 2
1 1 2 2 1 1 2 3 3 1 1 2 1 1 2 2 2 1 0 1 1 1 1 0 1 3 2 1 1 1 2 4 3 3 3 4 4 4 4 4 4 4 4 4
1 0 0 0 0 1 1 2 2 2 1 1 1 1 2 2 1 0 0 0 1 1 1 1 2 3 2 1 2 2 2 3 5 3 3 4 4 4 4 4 4 4 4 5
2 2 2 2 2 1 1 1 2 2 2 2 1 1 2 2 1 2 1 0 0 1 2 2 2 3 2 2 2 2 2 2 2 3 3 3 4 4 4 4 4 4 3 3
2 1 1 1 1 1 1 1 1 2 2 1 1 1 1 1 1 1 0 0 0 2 3 2 3 3 2 2 2 1 2 2 1 2 2 3 3 3 4 4 4 4 3 3
3 2 2 2 2 2 1 1 1 1 1 2 2 2 1 1 0 1 1 1 2 3 3 2 2 2 2 2 2 1 1 2 2 1 2 2 3 3 4 4 4 4 3 3
2 2 2 2 1 1 1 1 1 1 1 2 2 2 1 1 0 0 1 1 3 2 1 2 1 1 1 1 1 0 1 1 1 2 2 2 2 3 3 3 3 3 3 3
1 1 1 1 2 1 0 1 2 1 1 2 2 2 1 1 1 0 1 2 2 0 0 1 1 1 1 2 0 0 0 1 1 1 1 1 1 1 1 1 1 1 2 2
2 0 1 1 2 2 1 1 1 2 2 2 2 2 2 2 1 1 1 1 0 0 1 0 1 1 2 1 1 1 1 0 1 1 1 1 1 1 1 1 1 1 1 1
1 1 1 2 3 4 3 1 1 1 1 1 1 2 1 1 0 1 1 1 1 2 1 1 2 2 2 1 1 1 1 1 1 1 1 1 1 0 1 1 1 0 0 0
1 1 2 3 3 2 2 2 2 2 2 1 1 1 1 1 1 0 0 1 1 2 1 2 2 2 2 1 1 1 1 1 1 1 1 1 1 1 0 0 1 1 1 1
2 1 1 1 1 1 2 2 1 1 2 2 1 1 1 1 2 1 1 1 1 1 1 1 1 2 1 2 2 1 1 1 1 1 1 1 1 1 1 1 2 2 2 2
2 2 2 2 1 1 2 2 2 1 1 2 1 1 1 1 2 1 1 1 1 1 1 1 1 2 1 1 2 2 2 2 1 1 1 1 1 1 2 3 3 3 3 3
Wind_Direction
205 222 216 260 275 247 162 181 177 202 191 205 198 179 169 155 152 145 141 152 156 157 165 174 173 173 177 182 181 175 170 176 183 176 169 165 159 156 156 155 155 153 146 142
337 341 6 319 295 265 176 155 173 167 205 211 178 132 133 147 145 144 147 157 160 160 167 180 182 181 181 184 181 173 173 176 173 168 167 167 163 159 157 157 155 151 153 154
271 326 27 304 269 200 191 175 161 179 205 165 140 147 158 157 143 142 159 161 161 169 174 182 184 183 183 182 174 176 178 175 171 168 169 169 167 162 165 166 161 159 159 156
125 59 227 243 255 145 120 75 135 150 151 145 149 151 150 149 144 148 156 152 160 172 175 181 183 179 175 169 171 176 176 175 172 169 170 169 167 170 171 168 170 171 171 171
119 165 269 292 294 145 116 359 0 126 130 133 133 98 59 120 142 156 157 155 162 172 172 169 165 168 162 166 171 174 179 179 177 172 170 173 177 180 178 172 173 172 176 178
130 153 219 253 284 244 102 8 324 121 137 144 118 114 218 190 136 131 128 134 132 131 131 152 170 160 159 167 170 182 187 183 177 173 175 179 183 181 177 172 176 173 180 184
156 188 250 264 290 34 116 219 265 132 131 121 130 169 187 151 127 123 121 119 118 112 128 165 163 151 160 172 187 192 182 175 175 177 180 181 178 175 172 173 172 175 182 194
149 174 249 291 18 111 186 200 94 86 102 107 115 122 119 120 122 113 104 100 107 105 94 105 140 148 161 190 198 178 168 171 176 177 179 175 173 172 174 175 178 184 188 202
174 203 232 273 136 160 140 119 103 93 92 110 109 109 107 109 117 116 113 99 100 111 96 68 100 143 168 198 175 163 166 171 173 173 175 171 172 175 177 179 183 190 193 205
115 246 218 83 83 70 91 107 111 109 102 102 112 110 101 104 100 90 92 92 86 87 77 36 19 73 167 184 169 162 167 172 170 173 175 176 179 179 183 188 191 195 202 210
102 259 26 10 26 82 67 70 71 67 93 112 112 114 124 124 125 125 115 111 105 114 127 135 10 20 7 148 150 164 167 169 172 177 179 183 186 190 195 200 199 196 203 201
205 223 166 235 282 90 87 74 63 59 50 72 120 138 127 128 139 135 127 121 112 110 113 14 9 5 342 160 150 161 163 172 174 177 178 178 179 189 215 213 219 219 212 203
197 188 159 178 55 71 93 82 61 67 101 103 95 124 123 123 121 126 144 163 160 164 156 127 236 296 282 202 162 171 180 183 182 182 183 187 190 189 204 247 234 227 224 215
167 112 78 59 77 40 73 74 74 68 90 111 113 118 119 115 114 122 178 196 181 144 121 153 227 279 282 227 157 188 191 190 191 193 192 194 196 196 193 195 206 236 246 229
86 138 160 160 124 63 68 80 79 65 79 74 89 117 125 127 135 156 183 136 107 95 93 30 314 287 291 219 174 205 203 201 200 200 198 199 196 194 197 198 200 204 216 246
338 77 110 97 96 78 85 105 114 155 136 98 77 107 128 129 128 117 94 121 121 151 228 247 286 284 286 262 235 237 224 215 212 210 206 202 197 196 197 198 200 202 207 212
110 8 55 39 175 127 136 167 168 174 145 127 166 159 118 102 98 113 276 224 174 214 245 258 284 300 291 254 237 243 237 222 213 210 210 207 203 203 202 202 203 209 218 213
171 189 193 180 177 191 196 168 158 152 165 186 177 117 103 109 158 236 240 202 38 331 299 276 285 305 293 264 247 250 235 227 212 208 207 207 205 203 200 201 205 210 223 217
68 95 115 135 141 138 152 169 168 153 157 145 133 133 133 150 191 233 221 94 275 286 289 286 282 293 294 292 284 240 227 223 222 220 206 195 198 200 200 203 207 213 215 215
51 58 61 41 54 84 121 159 142 136 162 147 130 111 81 346 298 184 170 244 255 253 265 286 294 299 300 312 320 254 224 211 207 204 197 194 198 205 208 210 212 213 213 217
32 42 54 60 67 73 144 166 153 173 190 147 140 154 176 275 282 188 176 282 292 288 282 287 296 301 302 317 324 252 212 197 200 201 199 201 201 210 215 214 212 210 210 217
331 56 86 115 115 110 161 140 139 150 154 152 159 163 156 224 253 248 237 233 249 262 3 1 358 352 344 344 27 91 129 159 181 185 188 188 187 196 203 206 208 204 212 223
303 219 157 157 140 138 97 87 118 145 152 159 161 167 188 217 200 173 267 287 245 92 52 21 10 6 349 14 53 62 72 114 139 154 170 174 174 183 195 193 195 208 232 247
22 50 74 105 106 105 101 86 97 128 137 137 126 130 142 145 321 258 201 176 86 76 56 38 46 35 28 43 49 46 47 56 82 89 87 95 104 139 176 172 158 147 76 352
53 71 87 96 99 118 138 121 96 91 87 82 79 80 107 146 163 209 85 77 68 57 29 25 36 30 35 51 64 64 67 78 79 79 71 68 70 73 79 124 130 116 102 99
52 56 75 123 146 144 130 115 100 87 93 83 47 32 39 66 91 82 69 70 66 54 34 21 46 61 76 80 77 74 77 72 67 59 45 48 47 60 76 82 85 91 87 86
40 43 48 40 37 95 101 97 92 76 87 102 84 35 56 72 71 57 51 56 56 47 41 45 62 76 82 79 79 73 70 67 56 47 39 43 50 59 75 87 90 89 90 88